Wetterdaten: Woche 17.04.17 - 23.04.17 (KW16)
Datum Zeit Temp. I. Temp. A. Feuchte I. Feuchte A. Luftdruck Regen Wind Richtung Sonnenschein UV Solar Taupunkt Windchill Windben
17.04.2017 00:00 24,4 C 3,8 C 57 % 90 % 1018,0 hPa 0,0 l/m 0,0 km/h (0 Bft) N 0,00 h 0,0 UV-I 0 W/m 2,4 C 3,8 C 0,2 km/h (0 Bft)
17.04.2017 01:00 24,2 C 4,1 C 57 % 89 % 1017,9 hPa 0,0 l/m 2,1 km/h (1 Bft) W-SW 0,00 h 0,0 UV-I 0 W/m 2,5 C 4,0 C 5,3 km/h (1 Bft)
17.04.2017 02:00 24,1 C 4,1 C 57 % 89 % 1017,5 hPa 0,0 l/m 2,5 km/h (1 Bft) W-SW 0,00 h 0,0 UV-I 0 W/m 2,4 C 4,0 C 6,2 km/h (2 Bft)
17.04.2017 03:00 24,1 C 3,9 C 57 % 89 % 1017,1 hPa 0,0 l/m 2,8 km/h (1 Bft) W-SW 0,00 h 0,0 UV-I 0 W/m 2,3 C 3,9 C 6,6 km/h (2 Bft)
17.04.2017 04:00 24,0 C 3,9 C 57 % 90 % 1016,8 hPa 0,0 l/m 1,8 km/h (1 Bft) SW 0,00 h 0,0 UV-I 0 W/m 2,4 C 3,8 C 4,5 km/h (1 Bft)
17.04.2017 05:00 23,9 C 3,7 C 57 % 89 % 1016,5 hPa 0,0 l/m 5,3 km/h (1 Bft) W-SW 0,00 h 0,0 UV-I 0 W/m 2,1 C 3,5 C 10,2 km/h (2 Bft)
17.04.2017 06:00 23,9 C 3,3 C 57 % 90 % 1016,4 hPa 0,0 l/m 3,3 km/h (1 Bft) W-SW 0,00 h 0,0 UV-I 14 W/m 1,9 C 3,3 C 6,9 km/h (2 Bft)
17.04.2017 07:00 23,9 C 3,5 C 57 % 90 % 1016,3 hPa 0,0 l/m 3,0 km/h (1 Bft) W-SW 0,00 h 0,0 UV-I 37 W/m 2,0 C 3,5 C 6,6 km/h (2 Bft)
17.04.2017 08:00 24,0 C 3,8 C 57 % 90 % 1016,0 hPa 0,0 l/m 1,2 km/h (1 Bft) W-SW 0,12 h 0,7 UV-I 91 W/m 2,3 C 3,8 C 3,3 km/h (1 Bft)
17.04.2017 09:00 24,2 C 4,4 C 58 % 88 % 1015,5 hPa 0,0 l/m 1,9 km/h (1 Bft) SW 0,58 h 1,0 UV-I 154 W/m 2,6 C 4,4 C 5,4 km/h (1 Bft)
17.04.2017 10:00 24,1 C 4,3 C 56 % 88 % 1014,8 hPa 0,0 l/m 1,9 km/h (1 Bft) W-SW 0,12 h 0,8 UV-I 115 W/m 2,5 C 4,3 C 5,1 km/h (1 Bft)
17.04.2017 11:00 23,9 C 3,9 C 53 % 90 % 1014,4 hPa 0,6 l/m 5,1 km/h (1 Bft) S 0,00 h 0,8 UV-I 103 W/m 2,3 C 3,5 C 9,5 km/h (2 Bft)
17.04.2017 12:00 24,0 C 2,5 C 52 % 93 % 1014,1 hPa 1,2 l/m 3,1 km/h (1 Bft) S 0,00 h 0,7 UV-I 79 W/m 1,5 C 2,4 C 5,5 km/h (1 Bft)
17.04.2017 13:00 24,0 C 2,1 C 52 % 94 % 1013,5 hPa 1,0 l/m 0,0 km/h (0 Bft) N 0,00 h 0,8 UV-I 96 W/m 1,3 C 2,1 C 0,0 km/h (0 Bft)
17.04.2017 14:00 24,1 C 2,7 C 53 % 95 % 1013,2 hPa 0,4 l/m 0,0 km/h (0 Bft) N 0,48 h 1,1 UV-I 160 W/m 2,0 C 2,7 C 0,0 km/h (0 Bft)
17.04.2017 15:00 24,3 C 4,3 C 54 % 94 % 1012,9 hPa 0,0 l/m 0,4 km/h (0 Bft) N 0,97 h 1,5 UV-I 239 W/m 3,4 C 4,3 C 1,2 km/h (1 Bft)
17.04.2017 16:00 24,3 C 5,4 C 52 % 91 % 1012,7 hPa 0,2 l/m 4,3 km/h (1 Bft) N 0,47 h 1,2 UV-I 184 W/m 4,0 C 4,7 C 9,1 km/h (2 Bft)
17.04.2017 17:00 24,3 C 5,2 C 51 % 90 % 1013,1 hPa 0,0 l/m 4,3 km/h (1 Bft) N-NW 0,28 h 0,7 UV-I 143 W/m 3,6 C 4,3 C 7,9 km/h (2 Bft)
17.04.2017 18:00 24,4 C 5,3 C 51 % 89 % 1013,5 hPa 0,0 l/m 3,8 km/h (1 Bft) NW 0,00 h 0,5 UV-I 67 W/m 3,6 C 4,2 C 7,4 km/h (2 Bft)
17.04.2017 19:00 24,3 C 4,1 C 50 % 91 % 1014,3 hPa 0,0 l/m 2,4 km/h (1 Bft) N-NW 0,00 h 0,0 UV-I 14 W/m 2,8 C 4,0 C 6,2 km/h (2 Bft)
17.04.2017 20:00 24,3 C 2,9 C 51 % 92 % 1015,1 hPa 0,0 l/m 3,1 km/h (1 Bft) N-NW 0,00 h 0,0 UV-I 0 W/m 1,7 C 2,8 C 6,0 km/h (2 Bft)
17.04.2017 21:00 24,6 C 2,5 C 52 % 93 % 1016,0 hPa 0,0 l/m 0,0 km/h (0 Bft) N 0,00 h 0,0 UV-I 0 W/m 1,5 C 2,5 C 0,0 km/h (0 Bft)
17.04.2017 22:00 24,6 C 2,3 C 53 % 94 % 1016,4 hPa 0,0 l/m 0,0 km/h (0 Bft) N 0,00 h 0,0 UV-I 0 W/m 1,5 C 2,3 C 0,0 km/h (0 Bft)
17.04.2017 23:00 24,3 C 2,3 C 53 % 94 % 1016,9 hPa 0,0 l/m 0,1 km/h (0 Bft) N-NW 0,00 h 0,0 UV-I 0 W/m 1,4 C 2,3 C 0,1 km/h (0 Bft)
18.04.2017 00:00 24,1 C 2,3 C 53 % 94 % 1016,9 hPa 0,0 l/m 0,1 km/h (0 Bft) N-NW 0,00 h 0,0 UV-I 0 W/m 1,4 C 2,3 C 0,4 km/h (0 Bft)
18.04.2017 01:00 24,0 C 2,0 C 53 % 94 % 1016,8 hPa 0,0 l/m 0,1 km/h (0 Bft) N-NW 0,00 h 0,0 UV-I 0 W/m 1,2 C 2,0 C 0,2 km/h (0 Bft)
18.04.2017 02:00 23,9 C 1,7 C 53 % 94 % 1016,5 hPa 0,0 l/m 0,0 km/h (0 Bft) N 0,00 h 0,0 UV-I 0 W/m 0,8 C 1,7 C 0,0 km/h (0 Bft)
18.04.2017 03:00 23,9 C 1,6 C 54 % 94 % 1016,3 hPa 0,0 l/m 0,0 km/h (0 Bft) N 0,00 h 0,0 UV-I 0 W/m 0,8 C 1,6 C 0,0 km/h (0 Bft)
18.04.2017 04:00 23,8 C 1,6 C 54 % 95 % 1016,1 hPa 0,2 l/m 0,1 km/h (0 Bft) N-NW 0,00 h 0,0 UV-I 0 W/m 0,9 C 1,6 C 0,5 km/h (0 Bft)
18.04.2017 05:00 23,7 C 1,1 C 54 % 95 % 1016,0 hPa 0,2 l/m 0,2 km/h (0 Bft) N-NW 0,00 h 0,0 UV-I 0 W/m 0,4 C 1,1 C 0,7 km/h (0 Bft)
18.04.2017 06:00 23,7 C 0,8 C 54 % 95 % 1016,2 hPa 0,0 l/m 0,4 km/h (0 Bft) N-NW 0,00 h 0,0 UV-I 5 W/m 0,1 C 0,8 C 0,9 km/h (0 Bft)
18.04.2017 07:00 23,8 C 0,8 C 54 % 95 % 1016,7 hPa 0,0 l/m 2,2 km/h (1 Bft) N-NW 0,00 h 0,0 UV-I 11 W/m 0,1 C 0,8 C 4,7 km/h (1 Bft)
18.04.2017 08:00 23,8 C 1,5 C 54 % 95 % 1017,4 hPa 0,0 l/m 3,4 km/h (1 Bft) N-NW 0,00 h 0,6 UV-I 73 W/m 0,8 C 1,2 C 7,7 km/h (2 Bft)
18.04.2017 09:00 23,9 C 2,4 C 54 % 93 % 1018,0 hPa 1,6 l/m 7,1 km/h (2 Bft) N-NW 0,75 h 1,1 UV-I 226 W/m 1,4 C 0,8 C 13,1 km/h (3 Bft)
18.04.2017 10:00 23,7 C 3,0 C 54 % 90 % 1018,7 hPa 1,8 l/m 9,9 km/h (2 Bft) N-NW 0,92 h 1,6 UV-I 259 W/m 1,5 C -0,1 C 16,6 km/h (3 Bft)
18.04.2017 11:00 23,6 C 3,2 C 53 % 88 % 1019,4 hPa 0,4 l/m 8,7 km/h (2 Bft) N-NW 0,98 h 1,8 UV-I 251 W/m 1,3 C 0,6 C 14,8 km/h (3 Bft)
18.04.2017 12:00 23,5 C 4,0 C 53 % 83 % 1019,8 hPa 0,0 l/m 9,5 km/h (2 Bft) N-NW 0,93 h 2,1 UV-I 274 W/m 1,4 C 1,2 C 16,2 km/h (3 Bft)
18.04.2017 13:00 23,7 C 4,8 C 52 % 80 % 1020,1 hPa 0,0 l/m 10,5 km/h (2 Bft) N-NW 0,98 h 2,0 UV-I 286 W/m 1,7 C 1,3 C 16,4 km/h (3 Bft)
18.04.2017 14:00 23,9 C 5,3 C 52 % 80 % 1020,2 hPa 0,2 l/m 10,5 km/h (2 Bft) NW 0,88 h 2,6 UV-I 353 W/m 2,2 C 2,0 C 17,1 km/h (3 Bft)
18.04.2017 15:00 23,9 C 6,8 C 52 % 72 % 1020,3 hPa 0,0 l/m 11,5 km/h (2 Bft) N-NW 0,87 h 2,1 UV-I 341 W/m 2,1 C 3,2 C 18,6 km/h (3 Bft)
18.04.2017 16:00 23,8 C 5,7 C 51 % 72 % 1020,6 hPa 0,0 l/m 12,8 km/h (3 Bft) N 0,22 h 1,1 UV-I 212 W/m 1,1 C 1,2 C 20,1 km/h (4 Bft)
18.04.2017 17:00 23,9 C 5,2 C 51 % 73 % 1021,2 hPa 0,0 l/m 12,9 km/h (3 Bft) N 0,33 h 0,9 UV-I 170 W/m 0,8 C 0,7 C 20,7 km/h (4 Bft)
18.04.2017 18:00 24,1 C 4,6 C 52 % 76 % 1021,9 hPa 0,0 l/m 11,3 km/h (2 Bft) N 0,40 h 0,6 UV-I 120 W/m 0,8 C 1,0 C 18,6 km/h (3 Bft)
18.04.2017 19:00 24,1 C 3,7 C 52 % 76 % 1022,8 hPa 0,0 l/m 5,7 km/h (1 Bft) N-NO 0,00 h 0,0 UV-I 24 W/m -0,1 C 2,6 C 10,4 km/h (2 Bft)
18.04.2017 20:00 24,3 C 2,5 C 52 % 82 % 1023,8 hPa 0,0 l/m 10,5 km/h (2 Bft) N 0,00 h 0,0 UV-I 0 W/m -0,3 C -0,9 C 15,5 km/h (3 Bft)
18.04.2017 21:00 24,4 C 1,4 C 53 % 87 % 1025,0 hPa 0,0 l/m 7,0 km/h (2 Bft) N 0,00 h 0,0 UV-I 0 W/m -0,5 C 0,3 C 11,6 km/h (2 Bft)
18.04.2017 22:00 24,2 C 1,1 C 53 % 89 % 1025,4 hPa 0,0 l/m 7,1 km/h (2 Bft) N 0,00 h 0,0 UV-I 0 W/m -0,5 C 0,1 C 10,9 km/h (2 Bft)
18.04.2017 23:00 23,9 C 0,5 C 52 % 92 % 1025,6 hPa 0,0 l/m 2,9 km/h (1 Bft) N 0,00 h 0,0 UV-I 0 W/m -0,7 C 0,5 C 5,0 km/h (1 Bft)
19.04.2017 00:00 23,8 C 0,1 C 52 % 93 % 1025,9 hPa 0,0 l/m 5,7 km/h (1 Bft) N 0,00 h 0,0 UV-I 0 W/m -0,9 C -0,2 C 9,4 km/h (2 Bft)
19.04.2017 01:00 23,7 C 0,5 C 53 % 93 % 1026,0 hPa 0,0 l/m 3,2 km/h (1 Bft) N 0,00 h 0,0 UV-I 0 W/m -0,5 C 0,4 C 6,1 km/h (2 Bft)
19.04.2017 02:00 23,6 C 0,3 C 53 % 93 % 1026,0 hPa 0,0 l/m 5,1 km/h (1 Bft) N 0,00 h 0,0 UV-I 0 W/m -0,7 C 0,0 C 8,9 km/h (2 Bft)
19.04.2017 03:00 23,6 C 0,7 C 53 % 93 % 1026,1 hPa 0,0 l/m 6,0 km/h (2 Bft) N 0,00 h 0,0 UV-I 0 W/m -0,3 C 0,1 C 10,0 km/h (2 Bft)
19.04.2017 04:00 23,6 C 0,7 C 53 % 92 % 1026,3 hPa 0,0 l/m 6,4 km/h (2 Bft) N 0,00 h 0,0 UV-I 0 W/m -0,4 C 0,0 C 10,3 km/h (2 Bft)
19.04.2017 05:00 23,5 C 0,5 C 53 % 92 % 1026,7 hPa 0,0 l/m 4,5 km/h (1 Bft) N 0,00 h 0,0 UV-I 0 W/m -0,7 C 0,2 C 8,1 km/h (2 Bft)
19.04.2017 06:00 23,4 C 0,3 C 53 % 91 % 1027,2 hPa 0,0 l/m 6,7 km/h (2 Bft) N 0,00 h 0,0 UV-I 12 W/m -1,0 C -0,7 C 11,2 km/h (2 Bft)
19.04.2017 07:00 23,6 C 0,5 C 53 % 90 % 1027,7 hPa 0,0 l/m 7,4 km/h (2 Bft) N 0,00 h 0,0 UV-I 44 W/m -0,9 C -1,2 C 12,1 km/h (2 Bft)
19.04.2017 08:00 23,9 C 0,8 C 52 % 86 % 1028,4 hPa 0,0 l/m 10,0 km/h (2 Bft) N 0,15 h 0,7 UV-I 114 W/m -1,2 C -2,4 C 15,3 km/h (3 Bft)
19.04.2017 09:00 24,1 C 2,8 C 51 % 75 % 1028,7 hPa 0,0 l/m 10,5 km/h (2 Bft) N 0,98 h 1,2 UV-I 453 W/m -1,2 C -0,8 C 17,2 km/h (3 Bft)
19.04.2017 10:00 24,0 C 2,8 C 51 % 65 % 1029,1 hPa 0,0 l/m 13,0 km/h (3 Bft) N 0,83 h 1,4 UV-I 204 W/m -3,0 C -2,3 C 20,6 km/h (4 Bft)
19.04.2017 11:00 23,9 C 2,8 C 51 % 64 % 1029,6 hPa 0,0 l/m 14,3 km/h (3 Bft) N 1,00 h 2,1 UV-I 298 W/m -3,4 C -3,0 C 22,5 km/h (4 Bft)
19.04.2017 12:00 23,8 C 3,7 C 51 % 60 % 1029,8 hPa 0,0 l/m 14,4 km/h (3 Bft) N-NO 1,00 h 2,7 UV-I 388 W/m -3,3 C -1,9 C 23,2 km/h (4 Bft)
19.04.2017 13:00 23,9 C 3,2 C 52 % 58 % 1030,1 hPa 0,0 l/m 13,7 km/h (3 Bft) N 1,00 h 2,0 UV-I 275 W/m -4,3 C -2,1 C 22,1 km/h (4 Bft)
19.04.2017 14:00 24,1 C 3,4 C 52 % 58 % 1030,3 hPa 0,0 l/m 13,8 km/h (3 Bft) N 0,95 h 2,0 UV-I 298 W/m -4,0 C -1,9 C 21,2 km/h (4 Bft)
19.04.2017 15:00 24,1 C 3,9 C 51 % 59 % 1030,3 hPa 0,0 l/m 10,5 km/h (2 Bft) N 0,78 h 1,7 UV-I 278 W/m -3,3 C 0,6 C 17,2 km/h (3 Bft)
19.04.2017 16:00 24,1 C 4,2 C 52 % 60 % 1030,2 hPa 0,0 l/m 13,9 km/h (3 Bft) N 0,70 h 1,5 UV-I 405 W/m -2,9 C -1,0 C 21,9 km/h (4 Bft)
19.04.2017 17:00 24,2 C 3,0 C 53 % 66 % 1030,6 hPa 0,0 l/m 11,5 km/h (2 Bft) N 0,35 h 0,9 UV-I 160 W/m -2,8 C -1,1 C 18,8 km/h (3 Bft)
19.04.2017 18:00 24,2 C 2,8 C 54 % 67 % 1031,0 hPa 0,0 l/m 11,8 km/h (2 Bft) N 0,05 h 0,6 UV-I 53 W/m -2,7 C -1,5 C 19,2 km/h (3 Bft)
19.04.2017 19:00 24,3 C 2,2 C 53 % 68 % 1031,4 hPa 0,0 l/m 9,8 km/h (2 Bft) N 0,00 h 0,0 UV-I 40 W/m -3,0 C -0,8 C 15,3 km/h (3 Bft)
19.04.2017 20:00 24,4 C 0,4 C 53 % 75 % 1032,2 hPa 0,0 l/m 7,8 km/h (2 Bft) N 0,00 h 0,0 UV-I 5 W/m -3,5 C -1,1 C 12,3 km/h (3 Bft)
19.04.2017 21:00 24,4 C 0,2 C 54 % 78 % 1032,8 hPa 0,0 l/m 7,7 km/h (2 Bft) N-NW 0,00 h 0,0 UV-I 0 W/m -3,2 C -1,4 C 11,3 km/h (2 Bft)
19.04.2017 22:00 24,2 C -0,5 C 53 % 83 % 1033,1 hPa 0,0 l/m 8,2 km/h (2 Bft) N-NW 0,00 h 0,0 UV-I 0 W/m -3,1 C -2,5 C 11,7 km/h (2 Bft)
19.04.2017 23:00 23,9 C -1,0 C 53 % 86 % 1033,5 hPa 0,0 l/m 6,2 km/h (2 Bft) N-NW 0,00 h 0,0 UV-I 0 W/m -3,1 C -1,7 C 9,5 km/h (2 Bft)
20.04.2017 00:00 23,8 C -1,4 C 53 % 88 % 1033,5 hPa 0,0 l/m 6,9 km/h (2 Bft) N-NW 0,00 h 0,0 UV-I 0 W/m -3,1 C -2,3 C 9,6 km/h (2 Bft)
20.04.2017 01:00 23,7 C -1,3 C 53 % 88 % 1033,4 hPa 0,0 l/m 7,5 km/h (2 Bft) N-NW 0,00 h 0,0 UV-I 0 W/m -2,9 C -2,6 C 10,2 km/h (2 Bft)
20.04.2017 02:00 23,7 C -0,9 C 54 % 89 % 1033,2 hPa 0,0 l/m 5,2 km/h (1 Bft) N-NW 0,00 h 0,0 UV-I 0 W/m -2,5 C -1,2 C 7,9 km/h (2 Bft)
20.04.2017 03:00 23,6 C -0,6 C 54 % 88 % 1033,1 hPa 0,0 l/m 3,1 km/h (1 Bft) N-NW 0,00 h 0,0 UV-I 0 W/m -2,3 C -0,6 C 5,3 km/h (1 Bft)
20.04.2017 04:00 23,6 C -0,5 C 54 % 88 % 1033,3 hPa 0,0 l/m 2,1 km/h (1 Bft) N-NW 0,00 h 0,0 UV-I 0 W/m -2,2 C -0,5 C 4,0 km/h (1 Bft)
20.04.2017 05:00 23,5 C -0,5 C 54 % 87 % 1033,6 hPa 0,0 l/m 4,5 km/h (1 Bft) N-NW 0,00 h 0,0 UV-I 0 W/m -2,3 C -0,7 C 7,9 km/h (2 Bft)
20.04.2017 06:00 23,4 C -0,5 C 54 % 86 % 1033,9 hPa 0,0 l/m 5,0 km/h (1 Bft) N 0,00 h 0,0 UV-I 22 W/m -2,5 C -0,7 C 7,7 km/h (2 Bft)
20.04.2017 07:00 23,5 C -0,3 C 55 % 85 % 1034,1 hPa 0,0 l/m 3,2 km/h (1 Bft) N 0,00 h 0,5 UV-I 67 W/m -2,5 C -0,3 C 6,2 km/h (2 Bft)
20.04.2017 08:00 23,6 C 0,5 C 54 % 81 % 1034,4 hPa 0,0 l/m 4,7 km/h (1 Bft) N-NW 0,07 h 0,7 UV-I 124 W/m -2,4 C 0,2 C 8,0 km/h (2 Bft)
20.04.2017 09:00 23,7 C 1,8 C 54 % 75 % 1034,5 hPa 0,0 l/m 5,6 km/h (1 Bft) N-NW 0,95 h 1,3 UV-I 279 W/m -2,2 C 1,0 C 10,0 km/h (2 Bft)
20.04.2017 10:00 23,7 C 2,1 C 54 % 67 % 1034,8 hPa 0,0 l/m 9,2 km/h (2 Bft) N-NW 0,72 h 1,2 UV-I 172 W/m -3,4 C -0,7 C 14,2 km/h (3 Bft)
20.04.2017 11:00 23,7 C 3,0 C 53 % 64 % 1035,1 hPa 0,0 l/m 6,7 km/h (2 Bft) N 1,00 h 2,0 UV-I 270 W/m -3,2 C 1,3 C 10,8 km/h (2 Bft)
20.04.2017 12:00 23,7 C 3,5 C 52 % 60 % 1035,1 hPa 0,0 l/m 6,5 km/h (2 Bft) N-NW 1,00 h 2,2 UV-I 297 W/m -3,5 C 2,2 C 11,0 km/h (2 Bft)
20.04.2017 13:00 23,8 C 4,6 C 52 % 57 % 1034,9 hPa 0,0 l/m 8,3 km/h (2 Bft) N-NW 1,00 h 3,2 UV-I 433 W/m -3,2 C 2,6 C 13,6 km/h (3 Bft)
20.04.2017 14:00 23,9 C 5,0 C 51 % 55 % 1034,7 hPa 0,0 l/m 7,1 km/h (2 Bft) NW 1,00 h 3,0 UV-I 443 W/m -3,4 C 3,4 C 12,3 km/h (3 Bft)
20.04.2017 15:00 24,0 C 6,3 C 51 % 51 % 1034,2 hPa 0,0 l/m 6,8 km/h (2 Bft) W-NW 0,95 h 3,1 UV-I 619 W/m -3,0 C 4,8 C 12,2 km/h (2 Bft)
20.04.2017 16:00 23,9 C 6,1 C 52 % 50 % 1033,8 hPa 0,0 l/m 8,6 km/h (2 Bft) N 0,90 h 2,0 UV-I 421 W/m -3,5 C 4,0 C 13,6 km/h (3 Bft)
20.04.2017 17:00 24,0 C 6,3 C 54 % 49 % 1033,5 hPa 0,0 l/m 6,7 km/h (2 Bft) N 0,98 h 1,3 UV-I 449 W/m -3,7 C 5,1 C 11,9 km/h (2 Bft)
20.04.2017 18:00 24,1 C 5,1 C 54 % 52 % 1033,5 hPa 0,0 l/m 6,2 km/h (2 Bft) N-NO 0,07 h 0,6 UV-I 105 W/m -3,9 C 3,7 C 10,1 km/h (2 Bft)
20.04.2017 19:00 24,1 C 3,9 C 54 % 55 % 1033,7 hPa 0,0 l/m 2,0 km/h (1 Bft) NW 0,00 h 0,0 UV-I 24 W/m -4,3 C 3,8 C 3,9 km/h (1 Bft)
20.04.2017 20:00 24,2 C 2,2 C 54 % 61 % 1033,9 hPa 0,0 l/m 0,0 km/h (0 Bft) N 0,00 h 0,0 UV-I 5 W/m -4,6 C 2,2 C 0,0 km/h (0 Bft)
20.04.2017 21:00 24,3 C 0,2 C 54 % 73 % 1034,4 hPa 0,0 l/m 0,0 km/h (0 Bft) N 0,00 h 0,0 UV-I 0 W/m -4,1 C 0,2 C 0,0 km/h (0 Bft)
20.04.2017 22:00 24,2 C -1,0 C 53 % 79 % 1034,4 hPa 0,0 l/m 0,0 km/h (0 Bft) N 0,00 h 0,0 UV-I 0 W/m -4,1 C -1,0 C 0,0 km/h (0 Bft)
20.04.2017 23:00 23,9 C -1,8 C 53 % 83 % 1034,3 hPa 0,0 l/m 0,4 km/h (0 Bft) W-SW 0,00 h 0,0 UV-I 0 W/m -4,3 C -1,8 C 0,8 km/h (0 Bft)
21.04.2017 00:00 23,7 C -2,2 C 54 % 85 % 1034,2 hPa 0,0 l/m 0,2 km/h (0 Bft) W-SW 0,00 h 0,0 UV-I 0 W/m -4,4 C -2,2 C 0,4 km/h (0 Bft)
21.04.2017 01:00 23,6 C -3,0 C 54 % 88 % 1033,9 hPa 0,0 l/m 0,0 km/h (0 Bft) SW 0,00 h 0,0 UV-I 0 W/m -4,8 C -3,0 C 0,1 km/h (0 Bft)
21.04.2017 02:00 23,6 C -3,4 C 54 % 89 % 1033,3 hPa 0,0 l/m 0,2 km/h (0 Bft) SW 0,00 h 0,0 UV-I 0 W/m -5,0 C -3,4 C 0,6 km/h (0 Bft)
21.04.2017 03:00 23,5 C -3,7 C 54 % 89 % 1032,8 hPa 0,0 l/m 0,0 km/h (0 Bft) N 0,00 h 0,0 UV-I 0 W/m -5,2 C -3,7 C 0,0 km/h (0 Bft)
21.04.2017 04:00 23,5 C -4,1 C 54 % 90 % 1032,4 hPa 0,0 l/m 0,1 km/h (0 Bft) S-SW 0,00 h 0,0 UV-I 0 W/m -5,5 C -4,1 C 0,2 km/h (0 Bft)
21.04.2017 05:00 23,4 C -3,9 C 54 % 91 % 1032,0 hPa 0,0 l/m 0,1 km/h (0 Bft) O-SO 0,00 h 0,0 UV-I 0 W/m -5,2 C -3,9 C 0,2 km/h (0 Bft)
21.04.2017 06:00 23,3 C -3,1 C 54 % 91 % 1031,7 hPa 0,0 l/m 0,3 km/h (0 Bft) S-SO 0,00 h 0,0 UV-I 12 W/m -4,3 C -3,1 C 0,7 km/h (0 Bft)
21.04.2017 07:00 23,5 C -1,9 C 55 % 91 % 1031,7 hPa 0,0 l/m 0,0 km/h (0 Bft) N 0,00 h 0,0 UV-I 37 W/m -3,2 C -1,9 C 0,0 km/h (0 Bft)
21.04.2017 08:00 23,5 C -0,2 C 54 % 83 % 1031,7 hPa 0,0 l/m 0,0 km/h (0 Bft) N 0,00 h 0,7 UV-I 100 W/m -2,7 C -0,2 C 0,0 km/h (0 Bft)
21.04.2017 09:00 23,7 C 1,3 C 54 % 75 % 1031,6 hPa 0,0 l/m 0,0 km/h (0 Bft) N 0,98 h 1,2 UV-I 165 W/m -2,6 C 1,3 C 0,0 km/h (0 Bft)
21.04.2017 10:00 23,8 C 5,1 C 53 % 66 % 1031,4 hPa 0,0 l/m 0,2 km/h (0 Bft) S 1,00 h 2,6 UV-I 227 W/m -0,8 C 5,1 C 0,9 km/h (0 Bft)
21.04.2017 11:00 23,7 C 8,7 C 54 % 54 % 1030,8 hPa 0,0 l/m 1,3 km/h (1 Bft) S 1,00 h 4,1 UV-I 713 W/m -0,2 C 8,7 C 4,1 km/h (1 Bft)
21.04.2017 12:00 23,9 C 10,7 C 54 % 47 % 1030,0 hPa 0,0 l/m 3,9 km/h (1 Bft) S 1,00 h 4,8 UV-I 838 W/m -0,2 C 10,5 C 9,5 km/h (2 Bft)
21.04.2017 13:00 23,8 C 11,2 C 54 % 43 % 1029,3 hPa 0,0 l/m 6,0 km/h (2 Bft) W-SW 1,00 h 4,6 UV-I 699 W/m -1,0 C 10,2 C 12,7 km/h (3 Bft)
21.04.2017 14:00 24,1 C 12,0 C 55 % 41 % 1028,7 hPa 0,0 l/m 8,9 km/h (2 Bft) SW 1,00 h 4,4 UV-I 715 W/m -0,9 C 10,1 C 15,8 km/h (3 Bft)
21.04.2017 15:00 24,1 C 12,9 C 55 % 39 % 1027,9 hPa 0,0 l/m 9,1 km/h (2 Bft) W-SW 1,00 h 3,5 UV-I 662 W/m -0,6 C 11,1 C 16,4 km/h (3 Bft)
21.04.2017 16:00 24,1 C 12,5 C 55 % 41 % 1027,0 hPa 0,0 l/m 13,1 km/h (3 Bft) W-SW 1,00 h 2,1 UV-I 482 W/m -0,4 C 9,1 C 20,7 km/h (4 Bft)
21.04.2017 17:00 24,1 C 11,8 C 55 % 44 % 1026,5 hPa 0,0 l/m 10,7 km/h (2 Bft) W 0,45 h 0,9 UV-I 184 W/m 0,0 C 9,2 C 17,7 km/h (3 Bft)
21.04.2017 18:00 24,1 C 10,8 C 55 % 48 % 1026,0 hPa 0,0 l/m 11,1 km/h (2 Bft) W 0,00 h 0,6 UV-I 82 W/m 0,3 C 7,9 C 18,1 km/h (3 Bft)
21.04.2017 19:00 24,1 C 10,5 C 55 % 50 % 1025,6 hPa 0,0 l/m 6,7 km/h (2 Bft) W 0,00 h 0,0 UV-I 23 W/m 0,6 C 9,3 C 12,6 km/h (3 Bft)
21.04.2017 20:00 24,2 C 10,1 C 55 % 55 % 1025,4 hPa 0,0 l/m 9,9 km/h (2 Bft) W 0,00 h 0,0 UV-I 5 W/m 1,3 C 7,7 C 16,4 km/h (3 Bft)
21.04.2017 21:00 24,2 C 9,7 C 55 % 59 % 1025,4 hPa 0,0 l/m 7,3 km/h (2 Bft) W 0,00 h 0,0 UV-I 0 W/m 2,0 C 8,4 C 13,8 km/h (3 Bft)
21.04.2017 22:00 24,2 C 9,3 C 55 % 60 % 1025,1 hPa 0,0 l/m 7,9 km/h (2 Bft) W 0,00 h 0,0 UV-I 0 W/m 2,1 C 7,8 C 14,5 km/h (3 Bft)
21.04.2017 23:00 23,9 C 9,0 C 55 % 62 % 1024,7 hPa 0,0 l/m 8,5 km/h (2 Bft) W 0,00 h 0,0 UV-I 0 W/m 2,1 C 7,2 C 14,8 km/h (3 Bft)
22.04.2017 00:00 23,8 C 8,7 C 55 % 64 % 1024,1 hPa 0,0 l/m 8,0 km/h (2 Bft) W-SW 0,00 h 0,0 UV-I 0 W/m 2,3 C 7,0 C 14,9 km/h (3 Bft)
22.04.2017 01:00 23,7 C 8,5 C 55 % 66 % 1023,5 hPa 0,0 l/m 3,2 km/h (1 Bft) SW 0,00 h 0,0 UV-I 0 W/m 2,6 C 8,1 C 8,1 km/h (2 Bft)
22.04.2017 02:00 23,6 C 8,3 C 55 % 69 % 1022,7 hPa 0,0 l/m 1,5 km/h (1 Bft) SW 0,00 h 0,0 UV-I 0 W/m 3,0 C 8,3 C 4,8 km/h (1 Bft)
22.04.2017 03:00 23,5 C 8,1 C 55 % 71 % 1022,0 hPa 0,0 l/m 1,1 km/h (1 Bft) SW 0,00 h 0,0 UV-I 0 W/m 3,2 C 8,1 C 4,3 km/h (1 Bft)
22.04.2017 04:00 23,5 C 7,9 C 55 % 74 % 1021,3 hPa 0,0 l/m 0,8 km/h (0 Bft) W-SW 0,00 h 0,0 UV-I 0 W/m 3,5 C 7,9 C 3,4 km/h (1 Bft)
22.04.2017 05:00 23,6 C 8,1 C 56 % 76 % 1020,8 hPa 0,0 l/m 2,4 km/h (1 Bft) W-SW 0,00 h 0,0 UV-I 0 W/m 4,2 C 8,1 C 7,1 km/h (2 Bft)
22.04.2017 06:00 23,5 C 8,1 C 56 % 78 % 1020,5 hPa 0,0 l/m 1,6 km/h (1 Bft) SW 0,00 h 0,0 UV-I 18 W/m 4,4 C 8,1 C 4,9 km/h (1 Bft)
22.04.2017 07:00 23,4 C 8,1 C 56 % 80 % 1020,3 hPa 0,0 l/m 3,8 km/h (1 Bft) W 0,00 h 0,0 UV-I 39 W/m 4,8 C 7,8 C 8,2 km/h (2 Bft)
22.04.2017 08:00 23,6 C 7,7 C 57 % 86 % 1020,2 hPa 0,4 l/m 6,1 km/h (2 Bft) W 0,00 h 0,6 UV-I 85 W/m 5,5 C 6,8 C 11,7 km/h (2 Bft)
22.04.2017 09:00 23,8 C 7,6 C 56 % 90 % 1019,9 hPa 0,4 l/m 7,1 km/h (2 Bft) W 0,20 h 0,8 UV-I 120 W/m 6,0 C 6,5 C 12,9 km/h (3 Bft)
22.04.2017 10:00 23,7 C 7,8 C 56 % 90 % 1019,6 hPa 0,4 l/m 9,8 km/h (2 Bft) W 0,72 h 1,3 UV-I 174 W/m 6,3 C 5,3 C 15,8 km/h (3 Bft)
22.04.2017 11:00 23,7 C 8,0 C 56 % 90 % 1019,1 hPa 0,2 l/m 10,6 km/h (2 Bft) W 0,55 h 1,3 UV-I 165 W/m 6,4 C 5,1 C 17,2 km/h (3 Bft)
22.04.2017 12:00 23,7 C 6,7 C 57 % 91 % 1019,2 hPa 2,4 l/m 12,0 km/h (2 Bft) N-NW 0,00 h 0,8 UV-I 70 W/m 5,3 C 2,9 C 19,5 km/h (3 Bft)
22.04.2017 13:00 23,9 C 5,2 C 57 % 93 % 1019,6 hPa 0,8 l/m 9,1 km/h (2 Bft) NW 0,43 h 1,5 UV-I 181 W/m 4,2 C 2,7 C 15,3 km/h (3 Bft)
22.04.2017 14:00 24,1 C 6,3 C 56 % 91 % 1019,5 hPa 0,2 l/m 8,6 km/h (2 Bft) NW 1,00 h 2,0 UV-I 274 W/m 5,0 C 4,4 C 14,3 km/h (3 Bft)
22.04.2017 15:00 24,3 C 6,9 C 57 % 85 % 1019,1 hPa 0,0 l/m 9,0 km/h (2 Bft) W-NW 0,68 h 1,7 UV-I 216 W/m 4,6 C 4,5 C 14,9 km/h (3 Bft)
22.04.2017 16:00 24,3 C 6,8 C 56 % 80 % 1019,0 hPa 0,0 l/m 11,9 km/h (2 Bft) NW 0,57 h 1,2 UV-I 171 W/m 3,5 C 3,0 C 18,6 km/h (3 Bft)
22.04.2017 17:00 24,2 C 7,0 C 56 % 74 % 1019,0 hPa 0,0 l/m 10,5 km/h (2 Bft) W-NW 0,20 h 1,0 UV-I 138 W/m 2,7 C 4,0 C 16,1 km/h (3 Bft)
22.04.2017 18:00 24,2 C 6,5 C 56 % 72 % 1019,0 hPa 0,0 l/m 5,4 km/h (1 Bft) NW 0,00 h 0,5 UV-I 64 W/m 1,9 C 5,9 C 10,0 km/h (2 Bft)
22.04.2017 19:00 24,3 C 6,1 C 56 % 74 % 1019,0 hPa 0,0 l/m 1,0 km/h (0 Bft) W-NW 0,00 h 0,0 UV-I 23 W/m 1,8 C 6,1 C 3,5 km/h (1 Bft)
22.04.2017 20:00 24,3 C 5,4 C 56 % 74 % 1019,3 hPa 0,0 l/m 1,0 km/h (0 Bft) W 0,00 h 0,0 UV-I 5 W/m 1,2 C 5,4 C 3,6 km/h (1 Bft)
22.04.2017 21:00 24,5 C 5,1 C 57 % 74 % 1019,8 hPa 0,0 l/m 6,1 km/h (2 Bft) W-NW 0,00 h 0,0 UV-I 0 W/m 0,9 C 4,0 C 10,6 km/h (2 Bft)
22.04.2017 22:00 24,6 C 4,7 C 57 % 73 % 1020,0 hPa 0,0 l/m 5,9 km/h (2 Bft) NW 0,00 h 0,0 UV-I 0 W/m 0,3 C 3,9 C 10,7 km/h (2 Bft)
22.04.2017 23:00 24,3 C 4,5 C 56 % 72 % 1020,1 hPa 0,0 l/m 7,1 km/h (2 Bft) W-NW 0,00 h 0,0 UV-I 0 W/m -0,1 C 3,2 C 12,1 km/h (2 Bft)
23.04.2017 00:00 24,1 C 4,1 C 56 % 72 % 1020,3 hPa 0,0 l/m 5,2 km/h (1 Bft) W-NW 0,00 h 0,0 UV-I 0 W/m -0,6 C 3,3 C 10,2 km/h (2 Bft)
23.04.2017 01:00 23,9 C 3,8 C 56 % 71 % 1020,4 hPa 0,0 l/m 3,7 km/h (1 Bft) W-NW 0,00 h 0,0 UV-I 0 W/m -0,9 C 3,5 C 7,6 km/h (2 Bft)
23.04.2017 02:00 23,8 C 3,6 C 56 % 73 % 1020,1 hPa 0,0 l/m 0,7 km/h (0 Bft) W-NW 0,00 h 0,0 UV-I 0 W/m -0,7 C 3,6 C 2,0 km/h (1 Bft)
23.04.2017 03:00 23,7 C 3,4 C 56 % 75 % 1020,1 hPa 0,0 l/m 4,5 km/h (1 Bft) W-NW 0,00 h 0,0 UV-I 0 W/m -0,7 C 2,8 C 8,4 km/h (2 Bft)
23.04.2017 04:00 23,7 C 3,1 C 56 % 75 % 1020,3 hPa 0,0 l/m 7,9 km/h (2 Bft) NW 0,00 h 0,0 UV-I 0 W/m -0,9 C 1,1 C 12,9 km/h (3 Bft)
23.04.2017 05:00 23,6 C 2,5 C 56 % 76 % 1020,6 hPa 0,0 l/m 3,9 km/h (1 Bft) W-NW 0,00 h 0,0 UV-I 0 W/m -1,3 C 2,0 C 7,5 km/h (2 Bft)
23.04.2017 06:00 23,6 C 2,2 C 56 % 78 % 1021,2 hPa 0,0 l/m 1,0 km/h (0 Bft) W 0,00 h 0,0 UV-I 15 W/m -1,3 C 2,2 C 3,1 km/h (1 Bft)
23.04.2017 07:00 23,6 C 2,4 C 56 % 79 % 1021,8 hPa 0,0 l/m 0,1 km/h (0 Bft) S 0,12 h 0,6 UV-I 81 W/m -0,9 C 2,4 C 0,7 km/h (0 Bft)
23.04.2017 08:00 23,7 C 4,0 C 56 % 72 % 1022,1 hPa 0,0 l/m 3,9 km/h (1 Bft) W-NW 0,93 h 1,1 UV-I 337 W/m -0,7 C 3,0 C 7,4 km/h (2 Bft)
23.04.2017 09:00 23,9 C 4,8 C 56 % 67 % 1022,2 hPa 0,0 l/m 7,0 km/h (2 Bft) NW 1,00 h 1,3 UV-I 355 W/m -0,9 C 3,3 C 12,3 km/h (3 Bft)
23.04.2017 10:00 23,9 C 5,5 C 57 % 62 % 1022,5 hPa 0,0 l/m 8,4 km/h (2 Bft) W-NW 0,95 h 1,7 UV-I 298 W/m -1,3 C 3,6 C 13,3 km/h (3 Bft)
23.04.2017 11:00 23,9 C 5,8 C 57 % 59 % 1022,5 hPa 0,0 l/m 8,2 km/h (2 Bft) W-NW 0,67 h 1,7 UV-I 225 W/m -1,5 C 4,0 C 13,7 km/h (3 Bft)
23.04.2017 12:00 24,1 C 5,2 C 58 % 64 % 1022,6 hPa 0,0 l/m 6,2 km/h (2 Bft) W-NW 0,32 h 1,1 UV-I 128 W/m -1,1 C 4,1 C 10,8 km/h (2 Bft)
23.04.2017 13:00 24,1 C 5,4 C 58 % 64 % 1022,4 hPa 0,0 l/m 5,6 km/h (1 Bft) W-SW 1,00 h 2,0 UV-I 250 W/m -1,0 C 3,8 C 10,6 km/h (2 Bft)
23.04.2017 14:00 24,1 C 6,2 C 57 % 59 % 1022,2 hPa 0,0 l/m 9,9 km/h (2 Bft) W-SW 1,00 h 2,7 UV-I 322 W/m -1,2 C 3,4 C 16,8 km/h (3 Bft)
23.04.2017 15:00 24,2 C 6,1 C 57 % 57 % 1021,9 hPa 0,0 l/m 8,4 km/h (2 Bft) W-SW 0,28 h 1,1 UV-I 165 W/m -1,6 C 4,1 C 16,1 km/h (3 Bft)
23.04.2017 16:00 24,3 C 6,3 C 56 % 58 % 1021,9 hPa 0,0 l/m 10,0 km/h (2 Bft) W-SW 0,50 h 1,0 UV-I 135 W/m -1,5 C 3,4 C 17,9 km/h (3 Bft)
23.04.2017 17:00 24,4 C 6,0 C 57 % 60 % 1022,2 hPa 0,0 l/m 9,1 km/h (2 Bft) W-SW 0,00 h 0,6 UV-I 93 W/m -1,2 C 3,5 C 16,4 km/h (3 Bft)
23.04.2017 18:00 24,3 C 5,6 C 55 % 64 % 1022,2 hPa 0,0 l/m 7,0 km/h (2 Bft) W-SW 0,00 h 0,0 UV-I 41 W/m -0,7 C 4,2 C 13,7 km/h (3 Bft)
23.04.2017 19:00 24,3 C 5,6 C 56 % 61 % 1022,4 hPa 0,0 l/m 3,6 km/h (1 Bft) W 0,00 h 0,0 UV-I 25 W/m -1,4 C 5,3 C 8,3 km/h (2 Bft)
23.04.2017 20:00 24,4 C 5,1 C 56 % 62 % 1022,6 hPa 0,0 l/m 1,2 km/h (1 Bft) W-SW 0,00 h 0,0 UV-I 5 W/m -1,6 C 5,1 C 4,0 km/h (1 Bft)
23.04.2017 21:00 24,5 C 4,0 C 56 % 69 % 1023,0 hPa 0,0 l/m 0,4 km/h (0 Bft) W-SW 0,00 h 0,0 UV-I 0 W/m -1,1 C 4,0 C 1,3 km/h (1 Bft)
23.04.2017 22:00 24,3 C 3,4 C 56 % 73 % 1023,3 hPa 0,0 l/m 0,1 km/h (0 Bft) W 0,00 h 0,0 UV-I 0 W/m -1,0 C 3,4 C 0,8 km/h (0 Bft)
23.04.2017 23:00 24,1 C 3,6 C 56 % 73 % 1023,3 hPa 0,0 l/m 0,3 km/h (0 Bft) W 0,00 h 0,0 UV-I 0 W/m -0,8 C 3,6 C 1,3 km/h (1 Bft)
Min-Datum _ 21.04.17 21.04.17 17.04.17 21.04.17 17.04.17 - 17.04.17 - - - - 21.04.17 19.04.17 17.04.17
_ Min-Zeit 05:46 04:04 16:36 15:33 16:21 - 00:00 - - - - 04:04 09:16 00:00
Minimum _ 23,3 C -4,2 C 46 % 37 % 1012,6 hPa - 0,0 km/h (0 Bft) - - - - -5,7 C -7,0 C 0,0 km/h (0 Bft)
Max-Datum _ 17.04.17 21.04.17 23.04.17 17.04.17 20.04.17 22.04.17 23.04.17 - 20.04.17 23.04.17 20.04.17 22.04.17 21.04.17 19.04.17
_ Max-Zeit 21:40 15:14 12:09 14:47 11:39 12:16 16:08 - 09:50 14:35 13:43 11:36 15:14 12:14
Maximum _ 24,7 C 13,8 C 59 % 96 % 1035,2 hPa 2,4 l/m 25,7 km/h
W-SW (4 Bft)
- 0,05 h 5,7 UV-I 1136 W/m 6,8 C 13,8 C 38,6 km/h
N-NO (5 Bft)
Durchschnitt _ 23,9 C 3,8 C 54 % 77 % 1024,3 hPa #12,6 l/m 5,4 km/h (1 Bft) N #46:16 h 1,6 UV-I 194 W/m -0,2 C 2,5 C 9,4 km/h (2 Bft)